| time (UTC) | temp F | wind direction | speed knots | gust knots | rain 1hr in | rain 24hr in | rain mn in | humidity % | barometer mb |
| 20260507115017 | 45 | 225 | 0.9 | 3.5 | 0.00 | 0.37 | 0.00 | 70 | 1010.9 |
| 20260507114018 | 44 | 0.0 | 1.7 | 0.00 | 0.37 | 0.00 | 74 | 1011.0 | |
| 20260507113017 | 44 | 0.0 | 0.9 | 0.00 | 0.38 | 0.00 | 76 | 1010.9 | |
| 20260507112018 | 42 | 0.0 | 0.9 | 0.00 | 0.39 | 0.00 | 78 | 1010.8 | |
| 20260507111017 | 41 | 203 | 1.7 | 3.5 | 0.00 | 0.41 | 0.00 | 79 | 1010.7 |
| 20260507110018 | 40 | 203 | 1.7 | 3.5 | 0.00 | 0.44 | 0.00 | 80 | 1010.5 |
| 20260507105037 | 39 | 158 | 1.7 | 4.3 | 0.00 | 0.46 | 0.00 | 81 | 1010.4 |
| 20260507104018 | 39 | 180 | 1.7 | 3.5 | 0.00 | 0.48 | 0.00 | 81 | 1010.5 |
| 20260507103017 | 38 | 158 | 1.7 | 2.6 | 0.00 | 0.49 | 0.00 | 82 | 1010.5 |
| 20260507102038 | 37 | 158 | 0.9 | 1.7 | 0.00 | 0.50 | 0.00 | 82 | 1010.3 |
| 20260507101038 | 37 | 158 | 0.9 | 1.7 | 0.00 | 0.51 | 0.00 | 82 | 1010.3 |
| 20260507100037 | 37 | 158 | 0.9 | 1.7 | 0.00 | 0.51 | 0.00 | 81 | 1010.3 |
| 20260507095017 | 37 | 158 | 0.9 | 1.7 | 0.00 | 0.52 | 0.00 | 81 | 1010.3 |
| 20260507094017 | 38 | 0.0 | 0.9 | 0.00 | 0.53 | 0.00 | 80 | 1010.3 | |
| 20260507093017 | 38 | 158 | 0.9 | 1.7 | 0.00 | 0.54 | 0.00 | 80 | 1010.1 |
| 20260507092017 | 39 | 158 | 0.9 | 1.7 | 0.00 | 0.55 | 0.00 | 79 | 1010.1 |
| 20260507091017 | 39 | 0.0 | 1.7 | 0.00 | 0.56 | 0.00 | 79 | 1010.4 | |
| 20260507090017 | 39 | 0.0 | 0.0 | 0.00 | 0.57 | 0.00 | 79 | 1010.5 | |
| 20260507085037 | 40 | 225 | 0.9 | 2.6 | 0.00 | 0.57 | 0.00 | 77 | 1010.4 |
| 20260507084017 | 41 | 0.0 | 1.7 | 0.00 | 0.58 | 0.00 | 76 | 1010.4 | |
| 20260507083017 | 42 | 248 | 0.9 | 4.3 | 0.00 | 0.59 | 0.00 | 76 | 1010.5 |
| 20260507082017 | 42 | 293 | 0.9 | 3.5 | 0.00 | 0.60 | 0.00 | 77 | 1010.6 |
| 20260507081017 | 42 | 248 | 0.9 | 2.6 | 0.00 | 0.61 | 0.00 | 78 | 1010.5 |
| 20260507080019 | 42 | 0.0 | 1.7 | 0.00 | 0.61 | 0.00 | 76 | 1010.4 | |
| 20260507075019 | 42 | 0.0 | 1.7 | 0.00 | 0.62 | 0.00 | 76 | 1010.3 | |
| 20260507074019 | 43 | 0.0 | 2.6 | 0.00 | 0.62 | 0.00 | 75 | 1010.4 | |
| 20260507073019 | 43 | 248 | 0.9 | 1.7 | 0.00 | 0.62 | 0.00 | 76 | 1010.2 |
| 20260507072019 | 43 | 0.0 | 1.7 | 0.00 | 0.62 | 0.00 | 76 | 1010.1 | |
| 20260507071039 | 43 | 248 | 0.9 | 2.6 | 0.00 | 0.62 | 0.00 | 75 | 1010.2 |
| 20260507070039 | 44 | 248 | 1.7 | 2.6 | 0.00 | 0.62 | 0.00 | 73 | 1010.2 |
| 20260507065018 | 44 | 248 | 1.7 | 4.3 | 0.00 | 0.62 | 0.00 | 72 | 1010.3 |
| 20260507064018 | 44 | 293 | 1.7 | 4.3 | 0.00 | 0.62 | 0.00 | 71 | 1010.3 |
| 20260507063018 | 44 | 293 | 3.5 | 7.8 | 0.00 | 0.62 | 0.00 | 73 | 1010.4 |
| 20260507062020 | 44 | 293 | 3.5 | 5.2 | 0.00 | 0.62 | 0.00 | 74 | 1010.4 |
| 20260507061018 | 44 | 293 | 3.5 | 7.0 | 0.00 | 0.62 | 0.00 | 75 | 1010.5 |
| 20260507060039 | 44 | 293 | 3.5 | 8.7 | 0.00 | 0.63 | 0.00 | 77 | 1010.6 |
| 20260507055018 | 44 | 293 | 3.5 | 5.2 | 0.00 | 0.64 | 0.00 | 79 | 1010.5 |
| 20260507054018 | 44 | 293 | 3.5 | 6.1 | 0.00 | 0.64 | 0.00 | 79 | 1010.4 |
| 20260507053018 | 45 | 293 | 2.6 | 5.2 | 0.00 | 0.64 | 0.00 | 79 | 1010.5 |
| 20260507052018 | 45 | 270 | 2.6 | 6.1 | 0.00 | 0.64 | 0.00 | 81 | 1010.5 |
| 20260507051018 | 45 | 293 | 2.6 | 6.1 | 0.00 | 0.64 | 0.00 | 81 | 1010.5 |
| 20260507050018 | 45 | 293 | 3.5 | 8.7 | 0.00 | 0.64 | 0.00 | 82 | 1010.4 |
| 20260507045018 | 45 | 293 | 3.5 | 9.6 | 0.00 | 0.64 | 0.00 | 84 | 1010.2 |
| 20260507044038 | 45 | 293 | 3.5 | 7.0 | 0.00 | 0.64 | 0.00 | 84 | 1010.4 |
| 20260507043018 | 45 | 293 | 4.3 | 8.7 | 0.00 | 0.64 | 0.00 | 84 | 1010.2 |
| 20260507042038 | 45 | 293 | 3.5 | 7.0 | 0.00 | 0.64 | 0.00 | 85 | 1010.0 |
| 20260507041018 | 46 | 293 | 4.3 | 9.6 | 0.00 | 0.64 | 0.00 | 85 | 1009.9 |
| 20260507040018 | 46 | 315 | 2.6 | 7.8 | 0.00 | 0.64 | 0.64 | 86 | 1009.8 |
| 20260507035038 | 47 | 338 | 2.6 | 7.0 | 0.00 | 0.64 | 0.64 | 85 | 1009.7 |
| 20260507034018 | 47 | 315 | 0.9 | 2.6 | 0.00 | 0.65 | 0.64 | 86 | 1009.7 |
| 20260507033019 | 47 | 293 | 1.7 | 4.3 | 0.00 | 0.66 | 0.64 | 85 | 1009.6 |
| 20260507032018 | 47 | 315 | 0.9 | 3.5 | 0.00 | 0.67 | 0.64 | 86 | 1009.7 |
| 20260507031018 | 47 | 315 | 0.9 | 2.6 | 0.00 | 0.68 | 0.64 | 86 | 1009.6 |
| 20260507030018 | 47 | 248 | 0.9 | 1.7 | 0.00 | 0.69 | 0.64 | 85 | 1009.7 |
| 20260507025018 | 46 | 0.0 | 0.9 | 0.00 | 0.70 | 0.64 | 86 | 1009.6 | |
| 20260507024038 | 46 | 0.0 | 1.7 | 0.00 | 0.71 | 0.64 | 86 | 1009.6 | |
| 20260507023018 | 46 | 0.0 | 0.9 | 0.00 | 0.72 | 0.64 | 86 | 1009.7 | |
| 20260507022058 | 46 | 248 | 0.9 | 1.7 | 0.00 | 0.74 | 0.64 | 86 | 1009.8 |
| 20260507021018 | 46 | 0.0 | 0.0 | 0.00 | 0.77 | 0.64 | 87 | 1009.6 | |
| 20260507020038 | 46 | 0.0 | 0.9 | 0.00 | 0.78 | 0.64 | 87 | 1009.8 | |
| 20260507015018 | 46 | 0.0 | 1.7 | 0.00 | 0.80 | 0.64 | 87 | 1009.8 | |
| 20260507014018 | 46 | 0.0 | 1.7 | 0.00 | 0.80 | 0.64 | 87 | 1009.8 | |
| 20260507013017 | 46 | 180 | 0.9 | 1.7 | 0.00 | 0.80 | 0.64 | 86 | 1009.7 |
| 20260507012018 | 46 | 0.0 | 0.0 | 0.00 | 0.81 | 0.64 | 86 | 1009.6 | |
| 20260507010017 | 46 | 0.0 | 0.9 | 0.00 | 0.83 | 0.64 | 85 | 1009.5 | |
| 20260507005038 | 46 | 225 | 0.9 | 1.7 | 0.00 | 0.83 | 0.64 | 85 | 1009.6 |
| 20260507004017 | 46 | 225 | 0.9 | 1.7 | 0.00 | 0.83 | 0.64 | 84 | 1009.5 |
| 20260507003017 | 47 | 0.0 | 1.7 | 0.00 | 0.84 | 0.64 | 83 | 1009.3 | |
| 20260507002017 | 47 | 270 | 0.9 | 1.7 | 0.00 | 0.84 | 0.64 | 84 | 1009.3 |
| 20260507001017 | 47 | 315 | 0.9 | 1.7 | 0.00 | 0.84 | 0.64 | 83 | 1009.2 |
| 20260507000017 | 47 | 248 | 0.9 | 2.6 | 0.00 | 0.84 | 0.64 | 84 | 1008.9 |
| 20260506235037 | 47 | 248 | 1.7 | 4.3 | 0.00 | 0.84 | 0.64 | 85 | 1009.1 |
| 20260506234017 | 47 | 225 | 0.9 | 1.7 | 0.00 | 0.84 | 0.64 | 82 | 1008.6 |
| 20260506233017 | 48 | 293 | 2.6 | 6.1 | 0.00 | 0.84 | 0.64 | 82 | 1008.8 |
| 20260506232017 | 47 | 225 | 0.9 | 2.6 | 0.00 | 0.84 | 0.64 | 84 | 1008.2 |
| 20260506231037 | 47 | 225 | 0.9 | 2.6 | 0.00 | 0.84 | 0.64 | 83 | 1007.9 |
| 20260506230037 | 47 | 225 | 1.7 | 3.5 | 0.00 | 0.84 | 0.64 | 82 | 1008.0 |
| 20260506225018 | 48 | 315 | 0.9 | 3.5 | 0.00 | 0.84 | 0.64 | 82 | 1008.1 |
| 20260506224017 | 48 | 248 | 0.9 | 3.5 | 0.00 | 0.84 | 0.64 | 82 | 1008.2 |
| 20260506223017 | 48 | 293 | 2.6 | 4.3 | 0.00 | 0.84 | 0.64 | 82 | 1008.4 |
| 20260506222017 | 48 | 293 | 2.6 | 4.3 | 0.00 | 0.84 | 0.64 | 82 | 1008.6 |
| 20260506221017 | 48 | 293 | 2.6 | 7.8 | 0.00 | 0.84 | 0.64 | 81 | 1008.6 |
| 20260506220037 | 48 | 293 | 2.6 | 6.1 | 0.00 | 0.84 | 0.64 | 82 | 1008.4 |
| 20260506215017 | 48 | 293 | 2.6 | 4.3 | 0.00 | 0.84 | 0.64 | 82 | 1008.3 |
| 20260506214017 | 48 | 293 | 4.3 | 7.0 | 0.00 | 0.84 | 0.64 | 82 | 1008.1 |
| 20260506213037 | 48 | 293 | 2.6 | 5.2 | 0.00 | 0.84 | 0.64 | 83 | 1008.2 |
| 20260506212039 | 47 | 315 | 2.6 | 6.1 | 0.00 | 0.84 | 0.64 | 83 | 1008.0 |
| 20260506211019 | 47 | 293 | 3.5 | 8.7 | 0.00 | 0.88 | 0.64 | 84 | 1008.1 |
| 20260506210019 | 47 | 293 | 4.3 | 9.6 | 0.00 | 0.89 | 0.64 | 85 | 1008.0 |
| 20260506205019 | 47 | 315 | 3.5 | 8.7 | 0.00 | 0.89 | 0.64 | 85 | 1007.8 |
| 20260506204018 | 47 | 293 | 4.3 | 9.6 | 0.00 | 0.91 | 0.64 | 86 | 1007.7 |
| 20260506203019 | 47 | 315 | 3.5 | 8.7 | 0.00 | 0.91 | 0.64 | 86 | 1007.6 |
| 20260506202019 | 47 | 338 | 3.5 | 6.1 | 0.00 | 0.91 | 0.64 | 86 | 1007.4 |
| 20260506201018 | 46 | 338 | 2.6 | 7.8 | 0.00 | 0.91 | 0.64 | 87 | 1007.4 |
| 20260506200019 | 46 | 338 | 5.2 | 9.6 | 0.00 | 0.91 | 0.64 | 87 | 1007.4 |
| 20260506195018 | 46 | 293 | 4.3 | 9.6 | 0.00 | 0.91 | 0.64 | 88 | 1007.5 |
| 20260506194018 | 46 | 293 | 4.3 | 10.4 | 0.00 | 0.91 | 0.64 | 88 | 1007.5 |
| 20260506193018 | 46 | 293 | 3.5 | 8.7 | 0.00 | 0.91 | 0.64 | 89 | 1007.5 |
| 20260506192018 | 47 | 293 | 3.5 | 6.1 | 0.00 | 0.91 | 0.64 | 89 | 1007.2 |
| 20260506191018 | 47 | 293 | 2.6 | 5.2 | 0.00 | 0.91 | 0.64 | 89 | 1007.1 |
| 20260506190019 | 47 | 293 | 3.5 | 7.8 | 0.01 | 0.91 | 0.64 | 89 | 1007.0 |
| 20260506185018 | 46 | 293 | 2.6 | 5.2 | 0.01 | 0.91 | 0.64 | 89 | 1007.2 |
| 20260506184018 | 46 | 315 | 4.3 | 8.7 | 0.01 | 0.91 | 0.64 | 89 | 1007.0 |
| 20260506183018 | 47 | 338 | 4.3 | 8.7 | 0.01 | 0.93 | 0.64 | 90 | 1006.9 |
| 20260506182018 | 47 | 315 | 4.3 | 8.7 | 0.01 | 0.94 | 0.64 | 89 | 1006.7 |
| 20260506181018 | 47 | 315 | 3.5 | 7.0 | 0.01 | 0.97 | 0.64 | 90 | 1006.6 |
| 20260506180018 | 47 | 338 | 3.5 | 8.7 | 0.00 | 0.97 | 0.63 | 89 | 1006.4 |
| 20260506175038 | 47 | 338 | 1.7 | 6.1 | 0.00 | 0.97 | 0.63 | 89 | 1006.3 |
| 20260506174020 | 47 | 293 | 2.6 | 6.1 | 0.00 | 0.97 | 0.63 | 90 | 1006.4 |
| 20260506173058 | 47 | 338 | 2.6 | 4.3 | 0.01 | 0.97 | 0.63 | 89 | 1006.3 |
| 20260506172018 | 47 | 315 | 1.7 | 3.5 | 0.01 | 0.97 | 0.63 | 89 | 1006.1 |
| 20260506171018 | 47 | 338 | 1.7 | 4.3 | 0.02 | 0.97 | 0.63 | 90 | 1006.1 |
| 20260506170018 | 47 | 338 | 1.7 | 4.3 | 0.03 | 0.97 | 0.63 | 90 | 1006.1 |
| 20260506165018 | 46 | 338 | 3.5 | 6.1 | 0.05 | 0.97 | 0.63 | 90 | 1006.1 |
| 20260506164018 | 46 | 338 | 1.7 | 3.5 | 0.07 | 0.97 | 0.63 | 91 | 1006.3 |
| 20260506163038 | 46 | 315 | 2.6 | 4.3 | 0.06 | 0.96 | 0.62 | 90 | 1006.4 |
| 20260506162038 | 46 | 293 | 1.7 | 5.2 | 0.07 | 0.96 | 0.62 | 90 | 1006.3 |
| 20260506161018 | 46 | 338 | 2.6 | 5.2 | 0.07 | 0.95 | 0.61 | 90 | 1006.4 |
| 20260506160018 | 46 | 338 | 3.5 | 5.2 | 0.06 | 0.94 | 0.60 | 90 | 1006.5 |
| 20260506155018 | 46 | 315 | 2.6 | 6.1 | 0.04 | 0.92 | 0.58 | 90 | 1006.6 |
| 20260506154018 | 46 | 338 | 1.7 | 4.3 | 0.03 | 0.90 | 0.56 | 90 | 1006.6 |
| 20260506153017 | 46 | 338 | 1.7 | 3.5 | 0.03 | 0.90 | 0.56 | 89 | 1006.8 |
| 20260506152018 | 46 | 338 | 0.9 | 1.7 | 0.03 | 0.89 | 0.55 | 89 | 1006.4 |
| 20260506151018 | 46 | 23 | 1.7 | 2.6 | 0.02 | 0.88 | 0.54 | 89 | 1006.5 |
| 20260506150037 | 46 | 0 | 0.9 | 2.6 | 0.03 | 0.88 | 0.54 | 89 | 1006.2 |
| 20260506145058 | 46 | 45 | 1.7 | 5.2 | 0.03 | 0.88 | 0.54 | 89 | 1006.0 |
| 20260506144017 | 46 | 45 | 2.6 | 4.3 | 0.04 | 0.87 | 0.53 | 89 | 1006.1 |
| 20260506143018 | 46 | 0.0 | 1.7 | 0.06 | 0.87 | 0.53 | 90 | 1006.1 | |
| 20260506142017 | 45 | 0 | 2.6 | 3.5 | 0.07 | 0.86 | 0.52 | 90 | 1006.2 |
| 20260506141017 | 45 | 338 | 1.7 | 3.5 | 0.09 | 0.86 | 0.52 | 90 | 1006.3 |
| 20260506140017 | 45 | 23 | 2.6 | 5.2 | 0.11 | 0.85 | 0.51 | 90 | 1006.3 |
| 20260506135017 | 45 | 338 | 1.7 | 4.3 | 0.14 | 0.85 | 0.51 | 90 | 1006.4 |
| 20260506134017 | 45 | 338 | 0.9 | 3.5 | 0.14 | 0.83 | 0.49 | 90 | 1006.4 |
| 20260506133017 | 45 | 23 | 0.9 | 2.6 | 0.14 | 0.81 | 0.47 | 90 | 1006.4 |
| 20260506132018 | 45 | 23 | 2.6 | 4.3 | 0.14 | 0.79 | 0.45 | 90 | 1006.5 |
| 20260506131017 | 45 | 338 | 2.6 | 6.1 | 0.14 | 0.77 | 0.43 | 90 | 1006.5 |
| 20260506130017 | 45 | 338 | 2.6 | 6.1 | 0.12 | 0.74 | 0.40 | 90 | 1006.5 |
| 20260506125017 | 45 | 338 | 3.5 | 6.1 | 0.10 | 0.71 | 0.37 | 90 | 1006.5 |
| 20260506124017 | 45 | 338 | 2.6 | 4.3 | 0.08 | 0.69 | 0.35 | 90 | 1006.4 |
| 20260506123017 | 45 | 23 | 3.5 | 7.8 | 0.07 | 0.67 | 0.33 | 90 | 1006.3 |
| 20260506122017 | 45 | 23 | 2.6 | 4.3 | 0.06 | 0.65 | 0.31 | 90 | 1006.3 |
| 20260506121017 | 45 | 23 | 4.3 | 8.7 | 0.06 | 0.63 | 0.29 | 90 | 1006.4 |
| 20260506120018 | 46 | 0 | 2.6 | 4.3 | 0.08 | 0.62 | 0.28 | 90 | 1006.3 |